Simultaneous Nadir Overpasses (SNOs) Predictions

Prediction of SNOs between METOP-A and NOAA-19 Satellite Orbit:

Table of predicted SNOs for the next 14.0 days since TLE Epoch: 8/30/2019
Index Date (METOP-A) Time (METOP-A) Lat,Lon (METOP-A) SZA (METOP-A ) Date (NOAA-19) Time (NOAA-19) Lat,Lon (NOAA-19) SZA (NOAA-19 ) Distance(km) Time Diff (sec)
1 08/31/2019 22:47:05 79.91,-149.22 71.63 08/31/2019 22:46:03 79.92,-149.22 71.63 1.10 62
2 08/31/2019 23:37:46 -79.92, 18.23 108.35 08/31/2019 23:36:57 -79.90, 18.25 108.38 2.30 49
3 09/01/2019 00:28:27 79.90,-174.67 71.64 09/01/2019 00:28:03 79.90,-174.49 71.64 3.50 24
4 09/01/2019 01:19:08 -79.91, -7.21 108.34 09/01/2019 01:18:58 -79.91, -7.32 108.35 2.02 10
5 09/01/2019 02:09:49 79.89, 159.89 71.65 09/01/2019 02:10:04 79.91, 159.94 71.67 2.37 15
6 09/01/2019 03:00:30 -79.90, -32.66 108.33 09/01/2019 03:00:58 -79.89, -32.58 108.33 1.95 28
7 09/01/2019 03:51:10 79.91, 134.73 71.70 09/01/2019 03:52:04 79.89, 134.67 71.69 2.50 54
8 09/01/2019 04:41:52 -79.89, -58.10 108.32 09/01/2019 04:42:59 -79.89, -58.15 108.30 1.17 67
9 09/11/2019 22:19:10 80.09,-140.72 75.98 09/11/2019 22:18:03 80.08,-143.95 75.84 61.91 67
10 09/11/2019 23:09:56 -79.96, 25.33 104.19 09/11/2019 23:08:53 -79.94, 25.17 104.22 3.29 63
11 09/12/2019 00:00:37 79.92,-167.64 75.78 09/11/2019 23:59:58 79.95,-167.65 75.80 2.82 39
12 09/12/2019 00:51:18 -79.94, -0.12 104.18 09/12/2019 00:50:53 -79.93, -0.10 104.20 2.07 25
13 09/12/2019 01:41:58 79.94, 167.20 75.84 09/12/2019 01:41:58 79.93, 167.09 75.82 2.67 0
14 09/12/2019 02:32:40 -79.93, -25.56 104.17 09/12/2019 02:32:54 -79.93, -25.67 104.17 2.00 14
15 09/12/2019 03:23:20 79.93, 141.76 75.85 09/12/2019 03:23:58 79.91, 141.82 75.84 2.60 38
16 09/12/2019 04:14:02 -79.92, -51.01 104.16 09/12/2019 04:14:54 -79.91, -50.93 104.15 1.80 52




NCC Satellite Simultaneous Nadir Overpasses (SNOs) Prediction Service
